• en France
  • Liste des pays
  • À 7 jours
  • Température de l'eau
  • Carte satellitaire
  • Carte météo
  • Widgets météo
  • user-avatar
    Se connecter

    Météo par heure à Kecskemét

    Ce jour, 21 Juillet, Samedi

    Heure Température Précipitation Vent Pression Humidité
    00:00 +22°C° 0 mm 1 m/s 748 mmHg 82%
    01:00 +21°C° 0 mm 1 m/s 748 mmHg 84%
    02:00 +21°C° 0 mm 1 m/s 748 mmHg 85%
    03:00 +21°C° 0 mm 1 m/s 748 mmHg 86%
    04:00 +20°C° 0 mm 1 m/s 748 mmHg 87%
    05:00 +22°C° 0 mm 1 m/s 749 mmHg 82%
    06:00 +23°C° 0 mm 1 m/s 749 mmHg 76%
    07:00 +25°C° 0 mm 1 m/s 749 mmHg 70%
    08:00 +26°C° 0 mm 2 m/s 749 mmHg 64%
    09:00 +28°C° 0 mm 2 m/s 749 mmHg 58%
    10:00 +29°C° 0 mm 2 m/s 749 mmHg 51%
    11:00 +30°C° 0 mm 2 m/s 749 mmHg 48%
    12:00 +31°C° 0 mm 2 m/s 748 mmHg 45%
    13:00 +32°C° 0 mm 2 m/s 748 mmHg 42%
    14:00 +31°C° 0 mm 2 m/s 748 mmHg 43%
    15:00 +31°C° 0 mm 2 m/s 747 mmHg 45%
    16:00 +31°C° 0 mm 2 m/s 747 mmHg 46%
    17:00 +29°C° 0,3 mm 1 m/s 747 mmHg 51%
    18:00 +28°C° 0,3 mm 1 m/s 747 mmHg 56%
    19:00 +27°C° 0,3 mm 1 m/s 746 mmHg 61%
    20:00 +26°C° 0,6 mm 1 m/s 747 mmHg 64%
    21:00 +25°C° 0,6 mm 1 m/s 747 mmHg 66%
    22:00 +24°C° 0,6 mm 1 m/s 747 mmHg 69%
    23:00 +23°C° 0,5 mm 2 m/s 747 mmHg 71%

    Demain, 22 Juillet, Dimanche

    Heure Température Précipitation Vent Pression Humidité
    00:00 +23°C° 0,5 mm 2 m/s 747 mmHg 74%
    01:00 +22°C° 0,5 mm 3 m/s 747 mmHg 77%
    02:00 +21°C° 0,1 mm 2 m/s 747 mmHg 79%
    03:00 +21°C° 0,1 mm 2 m/s 747 mmHg 81%
    04:00 +21°C° 0,1 mm 2 m/s 746 mmHg 83%
    05:00 +23°C° 0,3 mm 1 m/s 747 mmHg 79%
    06:00 +24°C° 0,3 mm 1 m/s 747 mmHg 76%
    07:00 +25°C° 0,3 mm 1 m/s 747 mmHg 73%
    08:00 +26°C° 0 mm 1 m/s 747 mmHg 68%
    09:00 +28°C° 0 mm 1 m/s 747 mmHg 62%
    10:00 +29°C° 0 mm 2 m/s 746 mmHg 56%
    11:00 +30°C° 0 mm 2 m/s 746 mmHg 51%
    12:00 +32°C° 0 mm 2 m/s 746 mmHg 46%
    13:00 +34°C° 0 mm 2 m/s 746 mmHg 41%
    14:00 +32°C° 0 mm 2 m/s 745 mmHg 43%
    15:00 +32°C° 0 mm 2 m/s 745 mmHg 44%
    16:00 +32°C° 0 mm 1 m/s 745 mmHg 45%
    17:00 +31°C° 0 mm 1 m/s 745 mmHg 48%
    18:00 +30°C° 0 mm 1 m/s 745 mmHg 52%
    19:00 +29°C° 0 mm 1 m/s 745 mmHg 55%
    20:00 +27°C° 0,7 mm 2 m/s 745 mmHg 61%
    21:00 +26°C° 0,7 mm 2 m/s 745 mmHg 68%
    22:00 +24°C° 0,7 mm 3 m/s 745 mmHg 74%
    23:00 +24°C° 1,1 mm 3 m/s 745 mmHg 78%

    Après-demain, 23 Juillet, Lundi

    Heure Température Précipitation Vent Pression Humidité
    00:00 +23°C° 1,1 mm 2 m/s 745 mmHg 83%
    01:00 +21°C° 1,1 mm 2 m/s 745 mmHg 87%
    02:00 +21°C° 0,1 mm 2 m/s 745 mmHg 87%
    03:00 +21°C° 0,1 mm 2 m/s 745 mmHg 87%
    04:00 +21°C° 0,1 mm 2 m/s 745 mmHg 86%
    05:00 +23°C° 0,2 mm 2 m/s 745 mmHg 85%
    06:00 +22°C° 0,2 mm 3 m/s 745 mmHg 83%
    07:00 +24°C° 0,2 mm 3 m/s 745 mmHg 81%
    08:00 +25°C° 1,8 mm 3 m/s 745 mmHg 77%
    09:00 +26°C° 1,8 mm 3 m/s 745 mmHg 72%
    10:00 +27°C° 1,8 mm 3 m/s 745 mmHg 68%
    11:00 +27°C° 0,3 mm 2 m/s 745 mmHg 64%
    12:00 +28°C° 0,3 mm 2 m/s 745 mmHg 59%
    13:00 +28°C° 0,3 mm 2 m/s 745 mmHg 55%
    14:00 +29°C° 0 mm 2 m/s 745 mmHg 53%
    15:00 +30°C° 0 mm 2 m/s 745 mmHg 51%
    16:00 +30°C° 0 mm 3 m/s 744 mmHg 49%
    17:00 +29°C° 0 mm 3 m/s 745 mmHg 53%
    18:00 +28°C° 0 mm 2 m/s 745 mmHg 58%
    19:00 +27°C° 0 mm 2 m/s 745 mmHg 63%
    20:00 +26°C° 0,6 mm 3 m/s 745 mmHg 67%
    21:00 +25°C° 0,6 mm 3 m/s 745 mmHg 71%
    22:00 +22°C° 0,6 mm 4 m/s 745 mmHg 75%
    23:00 +22°C° 0,1 mm 4 m/s 745 mmHg 76%

    24 Juillet, Mardi

    Heure Température Précipitation Vent Pression Humidité
    00:00 +21°C° 0,1 mm 4 m/s 745 mmHg 76%
    01:00 +21°C° 0,1 mm 4 m/s 746 mmHg 77%
    02:00 +20°C° 0 mm 4 m/s 746 mmHg 78%
    03:00 +20°C° 0 mm 4 m/s 746 mmHg 79%
    04:00 +19°C° 0 mm 4 m/s 746 mmHg 80%
    05:00 +21°C° 0 mm 4 m/s 746 mmHg 76%
    06:00 +22°C° 0 mm 5 m/s 747 mmHg 71%
    07:00 +23°C° 0 mm 5 m/s 747 mmHg 67%
    08:00 +26°C° 0 mm 5 m/s 747 mmHg 60%
    09:00 +27°C° 0 mm 5 m/s 747 mmHg 53%
    10:00 +29°C° 0 mm 5 m/s 747 mmHg 46%
    11:00 +30°C° 0 mm 5 m/s 747 mmHg 44%
    12:00 +30°C° 0 mm 4 m/s 747 mmHg 41%
    13:00 +32°C° 0 mm 4 m/s 746 mmHg 39%
    14:00 +32°C° 0 mm 4 m/s 746 mmHg 38%
    15:00 +33°C° 0 mm 4 m/s 746 mmHg 38%
    16:00 +33°C° 0 mm 3 m/s 746 mmHg 37%
    17:00 +30°C° 0 mm 3 m/s 746 mmHg 42%
    18:00 +29°C° 0 mm 2 m/s 746 mmHg 48%
    19:00 +27°C° 0 mm 2 m/s 746 mmHg 53%
    20:00 +26°C° 0 mm 2 m/s 746 mmHg 55%
    21:00 +25°C° 0 mm 2 m/s 747 mmHg 58%
    22:00 +25°C° 0 mm 2 m/s 747 mmHg 60%
    23:00 +24°C° 0 mm 2 m/s 747 mmHg 63%

    25 Juillet, Mercredi

    Heure Température Précipitation Vent Pression Humidité
    00:00 +23°C° 0 mm 2 m/s 747 mmHg 65%
    01:00 +23°C° 0 mm 2 m/s 747 mmHg 68%
    02:00 +21°C° 0 mm 2 m/s 747 mmHg 71%
    03:00 +21°C° 0 mm 2 m/s 747 mmHg 74%
    04:00 +20°C° 0 mm 2 m/s 747 mmHg 77%
    05:00 +21°C° 0 mm 2 m/s 747 mmHg 73%
    06:00 +23°C° 0 mm 2 m/s 747 mmHg 70%
    07:00 +25°C° 0 mm 2 m/s 748 mmHg 67%
    08:00 +26°C° 0 mm 2 m/s 748 mmHg 61%
    09:00 +27°C° 0 mm 2 m/s 748 mmHg 56%
    10:00 +29°C° 0 mm 2 m/s 748 mmHg 50%
    11:00 +30°C° 0 mm 2 m/s 747 mmHg 47%
    12:00 +30°C° 0 mm 2 m/s 747 mmHg 45%
    13:00 +31°C° 0 mm 1 m/s 747 mmHg 42%
    14:00 +31°C° 0 mm 1 m/s 747 mmHg 43%
    15:00 +31°C° 0 mm 2 m/s 747 mmHg 44%
    16:00 +31°C° 0 mm 2 m/s 747 mmHg 45%
    17:00 +29°C° 0 mm 2 m/s 747 mmHg 49%
    18:00 +28°C° 0 mm 2 m/s 747 mmHg 52%
    19:00 +27°C° 0 mm 1 m/s 747 mmHg 56%
    20:00 +26°C° 0 mm 1 m/s 747 mmHg 58%
    21:00 +25°C° 0 mm 1 m/s 747 mmHg 60%
    22:00 +24°C° 0 mm 1 m/s 747 mmHg 62%
    23:00 +24°C° 0,2 mm 1 m/s 747 mmHg 64%

    26 Juillet, Jeudi

    Heure Température Précipitation Vent Pression Humidité
    00:00 +23°C° 0,2 mm 1 m/s 747 mmHg 66%
    01:00 +23°C° 0,2 mm 1 m/s 747 mmHg 68%
    02:00 +23°C° 0,1 mm 1 m/s 747 mmHg 71%
    03:00 +22°C° 0,1 mm 1 m/s 748 mmHg 73%
    04:00 +22°C° 0,1 mm 1 m/s 748 mmHg 75%
    05:00 +23°C° 0 mm 1 m/s 748 mmHg 72%
    06:00 +24°C° 0 mm 1 m/s 748 mmHg 68%
    07:00 +26°C° 0 mm 1 m/s 748 mmHg 64%
    08:00 +27°C° 0,1 mm 1 m/s 748 mmHg 59%
    09:00 +28°C° 0,1 mm 1 m/s 749 mmHg 54%
    10:00 +30°C° 0,1 mm 1 m/s 749 mmHg 49%
    11:00 +30°C° 0 mm 1 m/s 748 mmHg 48%
    12:00 +31°C° 0 mm 1 m/s 748 mmHg 47%
    13:00 +31°C° 0 mm 1 m/s 748 mmHg 45%
    14:00 +31°C° 0 mm 1 m/s 748 mmHg 44%
    15:00 +31°C° 0 mm 1 m/s 748 mmHg 43%
    16:00 +32°C° 0 mm 1 m/s 748 mmHg 42%
    17:00 +30°C° 0 mm 1 m/s 748 mmHg 46%
    18:00 +29°C° 0 mm 1 m/s 748 mmHg 49%
    19:00 +26°C° 0 mm 0 m/s 748 mmHg 53%
    20:00 +27°C° 0 mm 1 m/s 748 mmHg 54%
    21:00 +27°C° 0 mm 1 m/s 748 mmHg 56%
    22:00 +26°C° 0 mm 1 m/s 749 mmHg 57%
    23:00 +25°C° 0 mm 1 m/s 749 mmHg 60%
    Voir plus